Weather observations for the past three days for
Bermuda
| Date | Time (adt) | Wind (mph) | Vis. (mi.) | Weather | Sky Cond. | Temperature (ºF) | Relative Humidity | Wind Chill (°F) | Heat Index (°F) | Pressure | Precipitation (in) | ||||||
|---|---|---|---|---|---|---|---|---|---|---|---|---|---|---|---|---|---|
| Air | Dwpt | 6 hour | altimeter (in) | sea level (mb) | 1 hr | 3 hr | 6 hr | ||||||||||
| Max. | Min. | ||||||||||||||||
| 06 | 16:55 | W 18 | 0.00 | Mostly Cloudy | FEW018 SCT150 BKN180 BKN230 | 80.6 | 71.6 | 74% | 85 | 0 | 0.0 | ||||||
| 06 | 15:55 | W 14 | 0.00 | Light Rain | FEW013 BKN110 OVC130 | 80.6 | 75.2 | 84% | 86 | 0 | 0.0 | ||||||
| 06 | 14:55 | SW 18 | 0.00 | Light Showers Rain | SCT014 BKN110 OVC130 | 80.6 | 77 | 89% | 87 | 0 | 0.0 | ||||||
| 06 | 13:55 | W 13 | 0.00 | Overcast | FEW013 SCT150 BKN180 OVC300 | 80.6 | 75.2 | 84% | 86 | 0 | 0.0 | ||||||
| 06 | 12:55 | SW 16 | 0.00 | Light Rain | FEW009 SCT062 BKN110 OVC300 | 77 | 75.2 | 94% | 78 | 0 | 0.0 | ||||||
| 06 | 11:55 | SW 10 | 0.00 | Light Rain | FEW009 SCT064 BKN130 OVC300 | 75.2 | 73.4 | 94% | 74 | 0 | 0.0 | ||||||
| 06 | 10:55 | NW 6 | 0.00 | Heavy Showers Rain Thunderstorm in Vicinity | BKN012CB OVC023 | 73.4 | 71.6 | 94% | 0 | 0.0 | |||||||
| 06 | 09:55 | NW 15 | 0.00 | Thunderstorm Light Rain | SCT007 BKN013CB OVC036 | 75.2 | 75.2 | 100% | 73 | 0 | 0.0 | ||||||
| 06 | 08:55 | W 18 | 0.00 | Thunderstorm in Vicinity Showers in Vicinity | SCT022CB BKN077 BKN230 | 80.6 | 73.4 | 79% | 85 | 0 | 0.0 | ||||||
| 06 | 07:55 | SW 20 | 0.00 | Light Showers Rain | BKN020CB BKN300 | 84.2 | 77 | 79% | 94 | 0 | 0.0 | ||||||
| 06 | 06:55 | W 17 | 0.00 | Showers in Vicinity | FEW023TCU SCT300 | 82.4 | 77 | 84% | 91 | 0 | 0.0 | ||||||
| 06 | 05:55 | SW 14 | 0.00 | Showers in Vicinity | FEW017TCU SCT300 | 82.4 | 77 | 84% | 91 | 0 | 0.0 | ||||||
| 06 | 04:55 | SW 20 | 0.00 | Showers in Vicinity | SCT017TCU SCT210 BKN300 | 84.2 | 77 | 79% | 94 | 0 | 0.0 | ||||||
| 06 | 03:55 | W 17 | 0.00 | Partly Cloudy | SCT018 SCT210 | 82.4 | 77 | 84% | 91 | 0 | 0.0 | ||||||
| 06 | 02:55 | SW 18 | 0.00 | Showers in Vicinity | FEW017TCU SCT200 | 82.4 | 77 | 84% | 91 | 0 | 0.0 | ||||||
| 06 | 01:55 | SW 17 | 0.00 | A Few Clouds | FEW022 FEW130 | 82.4 | 77 | 84% | 91 | 0 | 0.0 | ||||||
| 06 | 00:55 | W 17 | 0.00 | A Few Clouds | FEW020 FEW210 | 82.4 | 75.2 | 79% | 89 | 0 | 0.0 | ||||||
| 05 | 23:55 | SW 17 | 0.00 | Showers in Vicinity | SCT019TCU | 84.2 | 77 | 79% | 94 | 0 | 0.0 | ||||||
| 05 | 22:55 | W 16 | 0.00 | Partly Cloudy | SCT021 SCT300 | 84.2 | 75.2 | 74% | 92 | 0 | 0.0 | ||||||
| 05 | 21:55 | W 17 | 0.00 | Showers in Vicinity | SCT018 SCT050 | 84.2 | 77 | 79% | 94 | 0 | 0.0 | ||||||
| 05 | 20:55 | W 17 | 0.00 | Showers in Vicinity | SCT017TCU BKN049 BKN300 | 84.2 | 77 | 79% | 94 | 0 | 0.0 | ||||||
| 05 | 19:55 | W 18 | 0.00 | Partly Cloudy | SCT023 SCT300 | 84.2 | 77 | 79% | 94 | 0 | 0.0 | ||||||
| 05 | 18:55 | W 18 | 0.00 | Mostly Cloudy | SCT023 BKN300 | 86 | 77 | 75% | 97 | 0 | 0.0 | ||||||
| 05 | 17:55 | W 20 | 0.00 | Partly Cloudy | FEW022 SCT300 | 86 | 77 | 75% | 97 | 0 | 0.0 | ||||||
| 05 | 16:55 | W 20 | 0.00 | Mostly Cloudy | SCT022 BKN300 | 87.8 | 77 | 70% | 100 | 0 | 0.0 | ||||||
| 05 | 13:55 | W 20 | 0.00 | Mostly Cloudy | SCT020 BKN038 BKN300 | 87.8 | 78.8 | 75% | 102 | 0 | 0.0 | ||||||
| 05 | 12:55 | W 16 | 0.00 | A Few Clouds | FEW025 FEW300 | 86 | 77 | 75% | 97 | 0 | 0.0 | ||||||
| 05 | 11:55 | N 6 | 0.00 | Showers in Vicinity | FEW023 SCT300 | 84.2 | 73.4 | 70% | 91 | 0 | 0.0 | ||||||
| 05 | 10:55 | W 14 | 0.00 | Showers in Vicinity | SCT022CB BKN066 BKN300 | 84.2 | 75.2 | 74% | 92 | 0 | 0.0 | ||||||
| 05 | 09:55 | W 17 | 0.00 | Showers in Vicinity | SCT023TCU BKN300 | 86 | 77 | 75% | 97 | 0 | 0.0 | ||||||
| 05 | 08:55 | W 14 | 0.00 | Showers in Vicinity | SCT017TCU BKN300 | 82.4 | 77 | 84% | 91 | 0 | 0.0 | ||||||
| 05 | 07:55 | W 17 | 0.00 | Showers in Vicinity | FEW022 BKN300 | 84.2 | 77 | 79% | 94 | 0 | 0.0 | ||||||
| 05 | 06:55 | W 18 | 0.00 | Mostly Cloudy | FEW023 BKN300 | 82.4 | 75.2 | 79% | 89 | 0 | 0.0 | ||||||
| 05 | 05:55 | W 20 | 0.00 | Showers in Vicinity | FEW020 BKN300 | 82.4 | 77 | 84% | 91 | 0 | 0.0 | ||||||
| 05 | 04:55 | W 17 | 0.00 | Showers in Vicinity | FEW018 SCT051 BKN300 | 82.4 | 77 | 84% | 91 | 0 | 0.0 | ||||||
| 05 | 03:55 | W 18 | 0.00 | Mostly Cloudy | FEW021 BKN300 | 84.2 | 75.2 | 74% | 92 | 0 | 0.0 | ||||||
| 05 | 02:55 | W 18 | 0.00 | Mostly Cloudy | SCT021 BKN300 | 84.2 | 77 | 79% | 94 | 0 | 0.0 | ||||||
| 05 | 01:55 | W 17 | 0.00 | Mostly Cloudy | FEW022 SCT052 BKN300 | 84.2 | 75.2 | 74% | 92 | 0 | 0.0 | ||||||
| 05 | 00:55 | W 18 | 0.00 | Showers in Vicinity | SCT021 BKN300 | 84.2 | 75.2 | 74% | 92 | 0 | 0.0 | ||||||
| 04 | 23:55 | W 16 | 0.00 | Mostly Cloudy | SCT021 BKN300 | 84.2 | 77 | 79% | 94 | 0 | 0.0 | ||||||
| 04 | 22:55 | W 17 | 0.00 | Mostly Cloudy | SCT022 BKN300 | 84.2 | 75.2 | 74% | 92 | 0 | 0.0 | ||||||
| 04 | 21:55 | W 17 | 0.00 | Mostly Cloudy | FEW020 BKN300 | 84.2 | 75.2 | 74% | 92 | 0 | 0.0 | ||||||
| 04 | 20:55 | W 16 | 0.00 | Mostly Cloudy | SCT021 BKN300 | 84.2 | 77 | 79% | 94 | 0 | 0.0 | ||||||
| 04 | 19:55 | W 16 | 0.00 | Showers in Vicinity | SCT021 BKN300 | 84.2 | 77 | 79% | 94 | 0 | 0.0 | ||||||
| 04 | 18:55 | W 17 | 0.00 | Mostly Cloudy | SCT022 BKN300 | 84.2 | 77 | 79% | 94 | 0 | 0.0 | ||||||
| 04 | 17:55 | W 16 | 0.00 | Mostly Cloudy | FEW023 BKN300 | 86 | 77 | 75% | 97 | 0 | 0.0 | ||||||
| 04 | 16:55 | W 20 | 0.00 | Mostly Cloudy | FEW022 BKN300 | 86 | 77 | 75% | 97 | 0 | 0.0 | ||||||
| 04 | 15:55 | W 16 | 0.00 | Mostly Cloudy | FEW020 BKN300 | 86 | 77 | 75% | 97 | 0 | 0.0 | ||||||
| 04 | 14:55 | W 17 | 0.00 | Mostly Cloudy | SCT021 BKN300 | 86 | 77 | 75% | 97 | 0 | 0.0 | ||||||
| 04 | 13:55 | W 16 | 0.00 | Mostly Cloudy | FEW022 FEW200 BKN300 | 86 | 77 | 75% | 97 | 0 | 0.0 | ||||||
| 04 | 12:55 | W 15 | 0.00 | Mostly Cloudy | FEW018 SCT230 BKN300 | 86 | 77 | 75% | 97 | 0 | 0.0 | ||||||
| 04 | 11:55 | W 16 | 0.00 | Mostly Cloudy | FEW019 BKN300 | 86 | 77 | 75% | 97 | 0 | 0.0 | ||||||
| 04 | 10:55 | W 16 | 0.00 | Mostly Cloudy | FEW019 BKN300 | 84.2 | 77 | 79% | 94 | 0 | 0.0 | ||||||
| 04 | 09:55 | W 17 | 0.00 | Showers in Vicinity | FEW019 FEW041 BKN300 | 84.2 | 77 | 79% | 94 | 0 | 0.0 | ||||||
| 04 | 08:55 | W 16 | 0.00 | Mostly Cloudy | FEW020 SCT034 BKN300 | 84.2 | 77 | 79% | 94 | 0 | 0.0 | ||||||
| 04 | 07:55 | W 14 | 0.00 | Partly Cloudy | FEW020 SCT300 | 82.4 | 75.2 | 79% | 89 | 0 | 0.0 | ||||||
| 04 | 06:55 | W 10 | 0.00 | Partly Cloudy | FEW022 SCT300 | 82.4 | 75.2 | 79% | 89 | 0 | 0.0 | ||||||
| 04 | 05:55 | W 10 | 0.00 | Mostly Cloudy | FEW022 FEW037 BKN300 | 82.4 | 75.2 | 79% | 89 | 0 | 0.0 | ||||||
| 04 | 04:55 | W 10 | 0.00 | Partly Cloudy | FEW022 FEW060 SCT300 | 82.4 | 73.4 | 74% | 88 | 0 | 0.0 | ||||||
| 04 | 03:55 | W 10 | 0.00 | Showers in Vicinity | SCT021TCU SCT060 BKN300 | 82.4 | 75.2 | 79% | 89 | 0 | 0.0 | ||||||
| 04 | 02:55 | W 7 | 0.00 | Mostly Cloudy | SCT021 SCT036 BKN300 | 82.4 | 75.2 | 79% | 89 | 0 | 0.0 | ||||||
| 04 | 01:55 | W 6 | 0.00 | Partly Cloudy | FEW023 FEW037 SCT300 | 82.4 | 75.2 | 79% | 89 | 0 | 0.0 | ||||||
| 04 | 00:55 | W 6 | 0.00 | Partly Cloudy | FEW024 SCT300 | 82.4 | 75.2 | 79% | 89 | 0 | 0.0 | ||||||
| 03 | 23:55 | NW 5 | 0.00 | Partly Cloudy | FEW024 FEW037 SCT300 | 82.4 | 73.4 | 74% | 88 | 0 | 0.0 | ||||||
| 03 | 22:55 | NW 3 | 0.00 | Mostly Cloudy | FEW024 BKN300 | 82.4 | 75.2 | 79% | 89 | 0 | 0.0 | ||||||
| 03 | 21:55 | NW 5 | 0.00 | Mostly Cloudy | FEW024 BKN300 | 82.4 | 73.4 | 74% | 88 | 0 | 0.0 | ||||||
| 03 | 20:55 | NW 6 | 0.00 | Mostly Cloudy | FEW024 BKN300 | 82.4 | 73.4 | 74% | 88 | 0 | 0.0 | ||||||
| 03 | 19:55 | NW 3 | 0.00 | Mostly Cloudy | FEW023 FEW100 BKN300 | 82.4 | 75.2 | 79% | 89 | 0 | 0.0 | ||||||
| 03 | 18:55 | NW 3 | 0.00 | A Few Clouds | FEW023 FEW100 | 84.2 | 75.2 | 74% | 92 | 0 | 0.0 | ||||||
| 03 | 17:55 | Vrbl 3 | 0.00 | A Few Clouds | FEW026 FEW110 | 84.2 | 75.2 | 74% | 92 | 0 | 0.0 | ||||||
| Date | Time (adt) | Wind (mph) | Vis. (mi.) | Weather | Sky Cond. | Air | Dwpt | Max. | Min. | Relative Humidity | Wind Chill (°F) | Heat Index (°F) | altimeter (in) | sea level (mb) | 1 hr | 3 hr | 6 hr |
| 6 hour | |||||||||||||||||
| Temperature (ºF) | Pressure | Precipitation (in) | |||||||||||||||